Theta_e
349 350 352 354 354 354 357 356 355 359 365 358 355 360 358 360 357 361 363 357 357 354 352 351 348 351 355 358 359 358 356 356 355 355 354 351 347 350 350 347 347 347 348 348 348 350 350 352 353 352 351 352 353 352 353 354 354 355 355 354 354 354 354 354 353 353 353 354 354 353 353 353 353 354 353 352 352 352 352 352 352 351 351 351 352 353 352 352 352 353 354 353 353 353 353 352 351
351 352 353 355 353 356 361 359 360 362 362 352 351 361 359 360 360 365 369 364 359 349 349 349 352 357 355 355 356 356 356 352 352 352 351 350 350 352 350 347 347 347 348 348 348 350 351 353 353 352 351 352 353 353 354 354 355 354 354 354 354 353 353 353 353 352 353 354 354 353 353 354 354 354 352 351 352 353 352 352 352 351 351 351 352 353 352 352 352 353 353 353 353 352 352 351 351
352 353 353 355 354 355 360 360 361 358 356 350 351 365 360 358 365 366 367 364 355 347 350 350 354 357 352 355 355 357 356 350 350 350 351 351 352 352 350 348 348 349 348 348 349 351 351 352 353 353 352 353 353 353 354 354 354 353 353 353 354 353 353 354 354 353 353 354 354 353 354 354 354 354 353 351 352 353 353 353 353 352 350 351 352 353 352 351 352 352 352 352 352 351 351 351 351
352 354 353 355 356 355 366 369 367 360 353 350 349 362 368 364 363 359 356 355 351 347 350 350 352 351 354 360 356 358 356 350 350 350 351 351 352 352 349 348 349 350 349 349 349 351 352 352 352 353 354 354 353 353 353 351 353 353 352 352 353 353 354 355 354 354 354 354 353 353 355 355 355 355 354 353 352 353 354 354 354 352 350 350 352 353 352 351 351 351 351 352 352 351 351 351 351
355 356 354 354 359 359 370 370 367 362 354 357 352 358 375 371 360 354 352 350 349 350 350 354 355 349 353 356 353 357 354 350 351 350 351 351 351 351 348 349 349 349 349 348 349 351 352 351 352 353 353 353 352 354 352 350 351 352 352 353 353 354 354 354 354 354 354 354 354 353 354 354 354 355 353 351 351 353 354 354 353 352 351 352 352 352 351 351 350 351 351 352 352 352 352 352 352
355 356 355 353 357 356 364 362 357 359 359 366 358 357 370 366 360 356 351 348 348 349 351 356 354 352 353 349 349 352 350 350 351 350 352 351 351 350 348 349 349 349 348 348 350 351 352 353 353 353 353 353 353 353 351 350 351 351 352 353 354 353 353 353 354 354 354 354 354 353 352 353 354 355 353 350 351 353 353 353 353 354 354 353 353 351 351 351 349 350 351 351 353 353 352 352 352
355 356 359 357 356 357 367 361 354 357 356 361 358 357 362 361 361 356 351 349 349 349 350 352 349 356 355 350 351 349 348 351 350 350 352 352 350 350 349 349 349 348 348 349 350 350 353 353 351 351 351 352 354 353 350 350 351 351 352 353 353 352 352 352 353 353 353 354 353 352 352 353 354 354 354 351 351 352 352 351 352 353 353 353 354 353 352 351 350 351 351 352 353 352 352 352 351
354 357 360 362 364 368 371 362 357 359 356 357 359 358 360 362 360 356 355 351 352 351 350 349 349 361 356 351 356 350 349 351 350 352 351 351 350 350 349 348 348 348 350 350 350 351 353 351 349 349 350 351 352 353 351 350 351 352 353 352 352 351 351 352 353 353 352 352 352 352 352 354 354 354 354 352 350 352 351 350 350 351 351 351 352 353 353 353 352 352 352 352 353 353 353 351 349
354 358 358 362 368 368 365 361 358 358 361 362 359 362 363 360 358 357 359 354 352 353 353 351 353 364 356 352 355 349 351 352 351 353 352 351 350 350 349 348 347 349 350 350 351 353 352 349 349 349 351 351 351 353 352 351 352 352 353 351 351 350 350 351 352 352 351 351 351 351 352 353 353 353 353 351 350 351 352 351 351 350 350 350 350 351 352 353 353 352 352 351 352 352 351 348 348
354 358 359 366 368 361 356 357 360 359 362 362 357 364 363 356 358 359 358 355 352 355 354 350 353 358 354 353 353 349 352 353 352 353 353 352 350 350 348 347 347 348 351 351 353 353 350 349 349 349 350 351 352 354 352 352 352 351 352 350 349 349 348 350 350 350 350 352 352 351 353 353 353 353 353 352 350 351 351 351 351 350 349 350 350 350 350 351 351 351 350 350 350 350 349 348 347
360 362 363 371 367 357 352 356 367 367 366 365 359 362 363 356 358 359 357 356 354 355 352 352 354 353 352 352 352 350 353 353 353 354 353 352 351 350 348 346 345 347 350 351 353 352 351 350 349 350 350 351 351 353 353 352 351 350 350 349 348 348 348 349 349 349 350 352 352 352 352 352 352 352 352 352 351 350 352 351 350 349 349 349 348 349 350 350 350 350 350 350 349 350 349 348 347
364 369 370 373 366 360 358 363 370 372 373 369 358 360 363 356 357 358 357 357 355 355 351 356 356 352 355 355 352 351 352 353 353 353 353 353 351 349 347 346 344 346 349 351 352 352 353 351 349 351 351 350 350 352 352 352 351 350 349 348 348 347 348 349 348 348 349 350 353 353 352 353 351 351 351 350 350 351 352 352 351 349 348 348 347 348 349 350 351 351 351 350 350 351 350 349 348
364 371 376 370 363 365 366 366 369 370 369 364 358 361 361 355 357 357 355 355 354 355 351 353 351 351 357 353 351 350 350 352 352 353 352 352 351 349 346 344 343 344 348 350 351 352 353 352 351 352 352 351 350 352 351 350 351 350 348 348 348 348 349 348 348 350 348 347 352 353 352 353 352 351 351 350 350 350 351 352 352 351 351 350 349 350 350 350 351 351 351 350 351 351 350 349 349
363 369 374 368 361 367 367 364 369 365 358 361 362 363 363 358 358 355 356 357 354 355 351 349 348 353 356 352 353 350 350 352 351 352 351 351 350 348 347 345 344 343 347 350 351 352 352 352 352 351 351 351 351 351 351 350 351 350 349 349 348 348 349 349 348 349 347 342 347 354 353 352 352 350 349 349 350 350 350 351 351 351 351 351 351 351 350 349 349 349 349 349 350 349 349 349 348
362 366 372 370 363 364 365 364 372 368 359 364 361 360 364 360 359 354 355 359 355 351 348 347 348 354 358 354 355 351 349 351 350 351 350 351 350 349 348 346 344 344 348 351 351 352 352 351 351 351 350 351 351 351 352 351 352 351 349 349 348 349 349 348 346 348 347 337 338 350 353 352 352 351 349 348 348 348 348 349 350 350 349 349 348 348 347 347 347 347 347 347 348 349 349 348 348
362 368 375 371 362 359 362 366 369 364 362 366 361 362 362 354 357 355 353 355 351 347 348 350 346 349 355 352 352 349 349 351 350 351 351 351 351 350 350 347 345 346 350 351 352 352 351 352 351 351 351 351 351 351 352 351 351 350 349 349 350 350 347 346 345 348 349 342 338 343 349 353 353 352 351 350 348 347 347 347 347 348 347 347 347 347 346 346 346 346 346 347 348 347 348 348 349
364 371 376 364 361 362 364 369 366 360 363 368 365 367 366 355 354 353 351 351 350 349 348 349 346 348 351 350 349 348 350 350 351 352 351 352 351 351 350 348 347 348 351 351 352 352 352 352 350 351 351 351 351 351 352 352 350 349 350 352 350 349 348 347 347 349 351 349 345 340 339 347 353 353 352 352 351 349 349 348 345 344 343 345 347 346 346 345 345 345 344 345 345 344 344 345 346
369 374 369 359 364 369 367 369 365 361 363 368 366 365 366 358 353 352 350 349 349 348 347 348 349 348 348 349 348 349 350 350 351 352 351 352 351 351 350 349 350 350 351 352 352 352 352 351 350 351 351 351 352 352 352 351 351 351 351 351 349 349 350 349 348 350 352 351 349 342 335 338 346 352 352 352 352 351 350 348 345 343 341 343 344 343 343 342 342 342 340 339 340 340 340 341 342
371 374 368 362 369 370 367 367 363 362 362 368 371 363 363 360 354 354 355 351 348 349 349 350 351 350 349 348 350 350 350 351 352 352 351 352 351 351 351 350 351 351 351 352 351 352 352 351 351 351 351 352 352 352 351 351 351 351 350 349 348 349 349 349 349 352 352 351 348 345 339 333 335 345 351 351 351 351 350 347 344 343 343 344 343 340 340 340 340 339 338 337 336 337 337 338 339
371 372 370 367 367 367 366 367 366 363 361 369 375 363 363 365 357 355 356 352 349 352 352 354 354 351 350 349 350 350 349 351 351 352 351 351 351 350 351 351 351 351 351 351 351 351 352 351 351 351 351 352 352 351 351 351 350 349 349 348 349 349 350 350 352 351 348 345 342 339 334 330 328 333 342 348 349 348 348 346 346 346 345 345 343 339 338 339 338 336 337 338 335 335 336 336 337
367 367 371 367 363 363 364 366 366 365 361 366 375 367 363 364 358 354 354 354 353 352 350 353 354 350 350 350 349 351 350 351 351 351 352 351 351 350 350 351 350 351 350 350 350 351 351 351 351 351 352 352 351 351 351 352 351 350 350 350 350 351 351 352 351 347 341 335 330 329 326 325 326 325 331 341 345 344 344 345 344 343 342 342 341 338 338 337 335 334 335 336 335 335 335 336 337
366 365 370 366 361 362 364 364 365 367 363 364 375 368 360 360 356 353 353 357 355 348 346 349 350 349 350 350 349 350 350 351 351 350 351 351 351 350 350 350 350 350 350 350 350 350 350 350 350 351 352 352 351 351 351 352 352 351 351 350 351 351 351 351 348 341 338 332 325 324 324 325 326 324 326 334 340 340 340 340 340 339 338 339 338 338 339 337 336 335 335 336 336 337 337 338 339
367 367 368 363 361 367 366 363 365 367 364 367 372 364 364 365 357 357 353 356 356 345 346 348 347 348 348 349 349 349 349 350 351 351 351 351 351 351 350 350 350 350 350 349 349 349 349 349 349 350 351 350 350 350 351 351 352 351 350 349 350 350 350 350 345 339 340 339 334 333 332 330 327 325 327 331 334 336 337 337 337 336 336 337 338 338 339 338 337 337 337 337 338 339 339 340 341
364 367 368 364 361 367 365 362 364 365 364 366 364 361 372 371 356 357 354 357 360 347 346 347 347 348 347 349 348 347 350 349 350 351 351 351 351 351 350 350 350 349 350 350 349 348 348 348 348 348 350 349 348 349 350 351 351 350 349 348 348 349 349 348 342 339 342 343 343 342 340 335 330 328 329 331 333 334 335 336 335 336 337 338 339 340 340 341 341 342 343 342 342 341 341 341 342
364 367 368 366 362 368 365 362 364 363 364 362 361 368 375 371 358 356 357 355 353 346 347 348 346 348 347 348 348 347 348 349 350 350 350 351 350 351 350 350 350 350 350 350 349 348 347 347 348 348 349 348 348 348 349 350 350 349 349 348 347 348 348 347 341 339 343 344 345 345 342 338 334 332 333 333 334 335 335 336 337 339 340 343 344 345 345 346 347 348 348 348 347 346 345 345 345
365 366 367 368 365 369 363 363 367 364 366 363 365 374 373 371 361 354 359 352 345 346 347 348 347 348 348 347 347 347 347 348 350 350 350 350 350 350 350 351 351 351 350 350 349 348 348 347 347 348 347 348 348 348 348 350 350 348 348 347 346 347 347 345 341 342 345 344 345 344 342 339 336 335 335 335 336 337 338 339 341 343 345 347 348 348 348 348 348 348 349 348 348 348 348 348 348
363 367 369 369 367 368 363 364 369 365 367 366 369 376 373 369 359 355 360 348 344 349 347 347 348 347 347 347 346 346 346 348 349 349 350 349 349 350 350 351 351 351 351 351 350 349 348 347 347 347 347 347 347 347 348 349 349 347 347 347 345 345 346 344 343 344 345 344 345 344 344 342 339 337 337 337 338 338 340 342 344 346 347 347 347 348 348 348 348 348 348 348 348 347 347 346 347
363 366 369 368 365 367 366 369 369 363 363 366 370 372 370 366 359 363 362 346 344 349 347 348 347 347 347 346 346 346 346 347 348 349 349 349 349 350 350 351 351 351 352 351 351 349 348 347 347 347 347 347 346 346 347 348 348 346 346 346 344 344 345 345 344 344 344 344 345 346 347 346 344 342 341 341 343 344 344 345 346 346 347 347 347 348 349 349 349 348 348 348 347 347 345 343 343
365 366 371 371 371 370 366 370 368 360 363 370 367 361 366 367 364 370 360 344 346 348 347 348 347 348 347 346 347 346 346 346 348 348 349 349 349 350 350 350 351 351 351 352 351 350 349 347 347 347 347 347 346 345 346 348 347 346 346 345 344 344 345 345 344 343 343 345 347 348 349 348 346 345 345 346 347 347 347 347 346 346 347 347 348 348 349 349 349 348 348 347 347 346 344 341 341
365 368 379 378 376 371 361 366 369 361 366 373 360 353 369 376 371 376 365 346 345 349 348 348 348 347 347 347 347 347 346 346 347 348 348 348 348 349 349 350 351 351 351 352 352 351 350 349 348 347 347 347 347 346 346 347 347 347 346 345 345 344 344 344 344 343 344 347 348 349 349 349 347 347 347 347 348 348 347 347 346 347 347 348 349 349 349 349 348 348 347 347 346 346 343 340 340
367 361 373 376 362 362 362 363 368 365 366 372 358 351 370 380 370 372 369 353 345 347 348 346 347 347 347 347 347 347 346 345 347 347 348 348 348 349 349 350 350 351 351 352 352 352 351 351 349 347 348 348 348 347 346 347 347 347 347 347 346 345 344 344 343 342 345 348 348 349 349 348 347 346 347 347 348 348 348 346 346 347 348 349 349 348 349 349 349 348 347 346 346 344 341 338 339
372 350 357 365 354 365 373 363 367 370 366 368 358 355 370 374 368 369 366 357 348 346 346 345 346 345 345 346 346 346 345 345 346 346 347 348 348 349 349 349 350 351 351 352 352 352 352 351 350 348 348 348 348 347 348 347 347 347 347 347 346 345 344 343 342 343 347 349 348 349 349 347 347 345 346 348 348 349 348 346 347 348 349 349 348 347 348 349 348 348 346 346 346 344 342 339 338
372 352 351 359 356 364 368 360 365 370 368 366 359 361 370 365 365 370 363 356 351 348 346 345 344 344 344 344 345 345 345 345 345 345 346 347 347 348 348 349 350 350 351 351 352 352 352 352 350 349 348 348 347 347 348 348 347 347 347 347 346 345 343 342 342 344 348 348 348 350 349 347 347 346 348 349 349 348 346 347 348 349 349 348 347 347 349 349 348 348 346 346 345 343 342 341 339
361 355 352 358 359 356 358 359 363 366 368 368 363 365 370 363 365 370 360 355 351 348 348 347 344 344 344 344 344 345 346 346 346 345 345 346 347 347 348 349 349 350 350 350 351 351 352 351 351 349 349 349 347 346 348 348 348 347 347 348 346 343 342 342 343 345 348 349 349 352 351 348 348 349 349 349 349 347 346 348 349 349 348 347 347 348 349 349 348 347 346 346 346 344 342 342 341
356 355 354 356 356 352 357 358 360 368 368 366 368 368 369 365 366 370 363 356 351 348 349 347 345 345 345 346 345 345 345 346 346 344 344 345 346 347 347 348 349 350 350 350 351 351 351 352 351 351 350 350 347 346 348 349 348 348 348 348 346 343 341 342 343 345 348 349 350 353 353 350 350 351 350 349 348 347 348 349 349 349 347 346 349 349 349 349 348 347 345 346 347 345 344 343 341
360 363 360 355 350 349 362 365 361 369 369 368 371 368 369 366 363 369 367 360 352 349 350 348 348 348 347 346 346 346 346 345 344 343 344 345 345 346 347 348 349 349 349 350 351 352 352 352 352 352 351 350 349 348 349 350 349 349 348 348 346 343 342 342 342 345 349 350 350 353 354 353 353 353 350 349 349 348 349 349 349 349 347 347 349 350 350 349 349 347 345 346 347 346 345 344 342
349 355 355 354 351 346 357 366 364 368 367 367 368 365 369 368 363 368 367 362 357 351 351 350 350 350 348 347 346 346 346 344 343 343 344 344 344 346 346 347 348 349 349 350 351 352 352 352 352 352 351 351 350 349 350 350 349 349 348 347 346 343 343 343 342 345 349 350 349 351 354 354 355 354 351 350 350 349 349 349 349 350 349 348 349 349 350 349 348 347 345 345 347 348 346 345 344
333 338 343 346 348 347 351 362 364 365 365 365 367 366 367 366 363 367 366 362 359 352 351 351 351 351 349 347 346 347 346 344 345 344 344 344 345 345 346 347 348 349 349 349 351 351 352 352 352 351 351 351 350 349 349 349 348 348 347 347 346 344 344 343 342 345 348 348 348 349 352 354 355 354 352 350 350 350 350 350 350 351 351 350 349 348 349 348 346 344 345 345 346 349 348 346 345
326 331 333 332 342 346 348 361 366 363 362 365 370 368 367 366 362 365 367 363 360 353 350 351 351 351 349 348 347 346 346 347 347 345 343 344 345 345 346 347 347 348 349 349 350 351 351 352 352 351 351 350 350 349 348 348 348 347 346 346 345 344 344 344 343 345 348 348 347 347 350 353 354 354 353 352 350 350 350 350 350 351 351 351 350 349 348 347 345 345 346 346 345 348 350 349 347
327 331 328 325 337 336 332 353 367 363 359 362 370 370 368 370 364 364 364 362 364 360 356 356 353 351 349 347 347 346 347 348 348 346 344 344 344 345 346 346 347 347 349 349 349 350 351 351 351 351 351 350 350 350 348 348 347 347 346 345 345 345 345 346 345 346 348 348 347 346 348 351 353 353 353 352 351 350 350 350 350 349 349 349 350 350 348 347 348 349 349 348 346 347 348 349 349
328 331 329 324 332 341 342 356 367 363 359 363 363 358 364 371 367 367 363 358 363 364 362 362 358 354 352 349 347 346 346 347 347 346 345 344 344 345 346 347 348 348 348 349 349 349 350 350 351 350 350 350 350 349 348 348 348 347 345 345 346 346 346 347 346 347 348 348 348 346 347 350 352 351 352 352 351 350 350 350 350 349 348 348 350 349 348 348 350 351 350 349 347 347 347 348 350
325 328 331 323 331 359 367 365 364 359 357 363 355 344 355 371 369 369 365 360 362 363 364 363 360 359 356 352 349 346 345 345 346 346 345 344 344 345 346 347 348 348 348 349 348 349 349 349 350 350 350 350 350 349 348 348 347 346 345 345 346 347 347 347 347 347 347 348 348 346 346 349 350 348 348 350 352 350 350 350 350 349 348 348 349 349 348 349 352 351 350 348 347 349 349 348 349
319 325 328 329 346 371 372 364 359 357 355 358 354 344 348 360 366 368 365 363 363 362 365 364 361 361 357 353 349 347 346 344 345 346 345 344 344 344 345 346 348 347 348 349 348 348 348 349 349 349 349 349 349 349 348 348 347 347 345 345 346 346 347 347 346 347 347 348 348 346 346 347 348 346 344 347 351 350 349 349 349 350 348 349 350 349 349 352 352 351 349 348 348 351 351 347 347
320 327 333 347 366 373 372 363 356 359 355 353 361 353 343 348 357 361 361 364 364 362 364 364 362 360 357 353 349 347 346 345 345 346 345 345 344 345 345 346 347 348 348 348 348 348 348 348 348 349 349 349 348 348 348 348 347 346 345 345 346 346 346 347 346 347 347 347 347 346 345 345 345 344 342 345 350 351 349 346 347 348 346 349 351 350 350 353 353 351 350 349 350 351 351 349 347
322 326 335 352 365 365 366 360 353 357 346 341 356 353 341 349 359 361 361 362 364 364 363 362 361 359 357 353 348 346 346 345 345 345 346 345 344 345 345 345 347 348 348 348 348 349 348 348 348 348 349 348 348 347 347 347 346 346 345 345 346 346 346 346 346 347 347 346 346 345 345 344 343 343 341 343 348 350 347 344 343 344 343 346 350 351 351 353 352 352 351 352 352 352 351 351 349
322 329 340 348 353 357 359 356 352 351 340 337 350 349 341 349 360 363 362 362 366 365 360 358 358 357 357 354 350 347 347 346 344 345 345 344 344 345 345 346 346 347 348 348 349 348 348 349 348 348 348 348 348 348 347 346 346 346 345 345 346 346 347 346 346 347 346 346 345 345 344 344 343 341 341 342 346 347 345 343 341 341 341 344 349 351 352 353 352 352 352 352 352 353 351 351 350
327 338 345 340 347 355 358 362 356 346 342 342 348 351 342 343 357 366 365 369 369 364 361 359 357 357 356 355 351 347 348 346 344 345 344 343 344 344 345 346 346 347 348 348 348 348 349 349 349 348 348 348 348 348 347 347 346 346 346 345 345 346 346 346 347 347 346 345 345 345 345 344 343 341 340 341 343 344 344 342 340 340 342 345 348 351 352 354 353 352 352 352 352 353 352 351 351
333 347 345 333 339 345 346 353 349 339 341 344 347 351 342 337 353 366 366 371 369 363 367 365 359 358 356 354 352 348 348 347 344 345 345 344 345 345 346 346 346 347 348 348 349 348 349 349 349 349 348 348 348 348 348 347 347 346 346 346 345 346 346 346 347 346 346 346 346 346 345 345 343 341 341 341 342 344 345 343 342 343 345 347 349 350 351 353 353 353 353 353 353 352 352 351 351
334 343 341 330 332 335 336 342 344 339 337 340 346 348 341 341 352 359 364 369 366 362 363 363 359 357 354 354 352 350 350 347 344 345 345 346 347 345 345 346 346 348 348 348 348 348 349 349 349 349 349 349 348 348 348 348 347 347 346 346 346 346 346 346 346 346 346 346 346 346 345 344 343 341 341 342 342 345 346 344 344 346 347 349 350 349 349 352 352 353 353 353 353 352 352 352 351
328 333 332 328 331 330 331 337 338 336 332 335 343 342 339 342 346 354 360 358 358 356 356 357 357 356 354 353 351 350 351 349 347 347 347 348 348 346 346 347 346 347 348 348 349 348 349 349 349 349 349 349 348 348 348 348 347 346 345 345 345 346 347 346 346 346 346 346 346 346 345 344 342 342 342 341 342 345 346 345 347 348 348 349 351 350 349 350 351 352 352 352 352 351 351 352 352
324 333 328 325 333 330 326 332 335 336 335 334 335 335 336 339 341 352 357 353 357 360 361 361 358 356 354 352 350 350 353 352 348 348 349 349 347 346 347 347 347 347 348 348 348 349 349 348 349 349 348 349 348 348 348 348 347 346 345 345 345 347 347 347 347 346 346 346 346 345 344 344 343 343 343 341 342 344 344 345 348 349 349 349 350 350 350 350 350 351 352 351 352 352 352 352 353
321 330 323 318 329 331 324 329 340 340 334 332 332 334 345 351 347 354 358 358 363 363 363 363 360 356 353 352 352 351 353 354 351 349 350 349 347 346 348 347 347 348 348 348 349 348 349 349 349 349 348 348 348 348 348 348 347 346 345 345 346 347 347 347 347 347 346 345 345 345 344 344 344 343 344 342 342 342 342 345 348 348 349 349 349 350 350 351 351 352 352 352 352 352 353 353 354
321 321 319 321 330 338 330 326 337 336 326 332 337 338 353 354 342 355 365 362 366 365 363 362 359 357 354 353 353 352 353 354 353 352 352 350 348 347 348 348 347 348 348 348 349 349 349 349 349 349 348 348 348 348 348 348 347 346 345 345 346 346 347 347 347 347 347 346 345 345 345 345 344 344 345 344 343 342 342 346 348 347 347 347 348 350 350 351 351 352 352 353 353 353 353 354 354
327 319 322 330 329 338 337 327 333 332 326 338 342 340 349 344 337 356 365 359 363 365 363 362 360 357 355 353 354 355 355 353 352 352 351 351 349 347 348 348 347 348 348 348 349 349 349 349 349 349 348 349 348 348 348 348 348 347 346 346 346 346 346 346 346 346 347 346 345 345 345 344 345 345 345 345 344 343 343 344 345 345 345 346 347 349 349 350 351 351 352 353 353 353 353 353 353
331 326 330 331 324 326 327 325 331 328 326 339 344 342 345 343 346 359 358 361 372 366 361 365 364 361 357 354 355 358 358 355 354 353 353 351 348 347 348 347 347 347 347 348 348 349 349 348 349 349 349 349 348 348 348 348 348 347 347 347 345 345 346 345 345 346 346 346 345 345 345 344 344 345 345 345 345 344 343 343 343 343 343 345 347 348 348 348 349 350 352 354 354 353 353 352 353
330 331 330 333 334 332 325 324 328 327 329 336 339 340 344 349 360 367 360 372 382 373 371 374 368 362 359 355 355 359 359 357 356 354 354 352 348 348 347 346 347 347 346 347 347 348 350 349 349 349 349 349 348 348 349 348 348 348 347 347 346 345 345 345 345 345 345 345 345 345 345 343 344 345 345 344 344 343 343 343 344 344 344 346 347 348 348 348 348 348 350 353 354 353 352 353 354
327 329 326 327 330 329 326 326 323 327 336 338 336 337 346 358 365 368 367 372 376 377 380 381 370 362 360 355 356 360 360 357 355 354 353 351 348 347 347 346 346 346 346 347 347 348 350 349 350 350 349 349 349 348 349 348 347 348 348 347 347 346 346 346 346 345 345 345 344 344 343 343 343 345 346 345 344 343 344 345 345 345 346 346 347 347 348 348 349 349 349 351 353 353 353 354 355
332 331 328 328 326 325 327 325 322 326 332 338 337 331 342 362 362 363 371 370 371 371 374 380 372 361 361 359 357 361 361 359 355 352 352 350 348 347 347 347 346 346 347 347 348 348 349 350 350 350 350 349 349 348 348 348 348 348 348 347 346 346 346 346 346 346 346 345 344 343 342 343 344 345 346 346 345 345 345 346 346 346 346 347 347 347 347 348 348 349 349 350 352 353 353 354 355
Wind_Speed
11 9 6 4 3 2 2 2 1 2 3 2 1 1 1 1 0 1 2 1 1 1 2 5 7 4 2 3 5 4 3 3 4 3 2 2 11 19 14 16 17 14 15 15 15 16 16 16 14 14 13 12 11 10 11 11 10 10 9 10 10 9 9 9 10 11 11 11 11 11 11 11 11 12 11 11 11 11 11 11 11 11 11 11 11 10 10 11 11 11 10 10 10 10 10 9 9
10 8 6 5 2 1 1 1 3 2 4 2 1 1 3 3 2 2 3 2 1 2 4 6 7 5 4 5 6 4 3 3 3 3 2 10 17 14 14 19 18 15 15 14 15 15 15 15 14 14 13 12 11 12 11 10 10 9 9 10 10 10 10 9 9 10 10 9 10 11 11 11 11 11 11 11 11 11 11 11 12 11 10 12 11 10 11 11 11 11 11 11 11 11 10 10 9
8 7 5 5 1 1 0 2 2 1 4 2 1 3 2 2 2 3 3 3 3 6 7 7 5 4 4 4 3 2 2 3 4 3 5 14 14 12 18 20 18 17 15 14 14 13 14 14 14 14 13 12 12 12 11 10 10 10 10 10 10 11 11 9 9 9 9 8 10 11 10 10 10 11 11 10 11 11 11 11 13 12 11 12 11 10 11 11 11 11 11 11 11 11 11 10 10
6 5 4 4 1 2 2 2 2 3 3 2 1 2 1 1 2 1 1 3 6 8 7 6 3 2 3 3 1 3 2 2 4 4 7 11 11 16 22 20 19 17 16 15 14 13 14 14 14 13 12 12 12 12 11 11 11 12 11 10 10 10 10 10 9 9 9 9 10 10 9 9 9 11 12 10 11 11 11 12 12 12 10 11 11 10 11 12 11 11 11 11 11 11 11 10 10
4 4 4 2 1 1 1 2 1 4 3 3 2 3 3 3 2 4 4 4 3 6 5 4 2 2 3 3 1 2 2 3 4 5 8 10 14 21 22 21 20 18 18 16 15 15 14 15 14 13 12 11 12 12 11 11 11 12 12 10 10 10 9 9 9 10 10 10 10 9 9 9 9 10 11 10 10 11 11 12 12 12 11 10 10 10 11 11 11 11 11 12 11 11 11 11 11
4 4 3 1 0 1 2 2 3 2 2 3 2 3 3 4 5 6 5 5 4 4 4 3 4 4 4 2 2 2 3 5 5 6 10 14 19 21 22 22 20 19 18 16 15 15 14 13 12 11 10 11 12 13 11 10 10 11 11 10 10 10 9 9 9 9 10 11 10 9 9 8 8 11 12 9 9 10 10 10 12 13 12 11 11 11 11 11 10 10 11 12 11 11 11 11 11
4 2 0 0 0 1 2 3 2 1 1 3 2 3 3 5 5 6 5 4 4 4 3 4 5 6 3 0 2 3 4 7 7 9 13 19 22 21 22 22 20 20 18 16 16 15 13 11 12 12 11 11 11 13 12 10 11 10 10 10 10 10 10 9 9 8 9 10 9 9 8 7 6 10 13 10 8 9 9 9 10 12 13 13 13 12 11 11 11 11 11 12 12 12 12 11 10
3 1 1 2 1 2 3 2 1 0 0 2 2 3 4 5 5 6 4 2 2 2 4 4 4 5 2 2 3 3 7 11 11 14 19 22 22 22 23 22 21 21 18 17 16 14 13 12 14 14 13 12 12 13 12 11 11 9 9 10 9 10 11 11 10 8 9 10 9 8 7 6 6 9 12 10 8 10 9 8 8 10 11 12 12 12 12 12 12 12 12 12 12 12 11 10 9
1 0 0 2 2 3 3 2 1 1 2 3 2 1 1 3 3 4 4 4 4 3 3 2 2 4 1 4 4 2 8 15 16 18 21 22 22 22 22 22 21 21 19 18 16 13 12 13 14 14 14 13 12 12 12 12 11 10 10 10 10 10 10 11 11 9 8 10 9 8 7 5 6 8 11 10 7 9 10 9 7 8 10 11 11 12 12 11 11 11 11 11 12 12 11 9 8
1 0 0 1 2 3 3 2 1 1 3 3 2 1 3 2 0 3 6 5 4 4 3 3 5 6 4 4 3 1 9 18 20 19 20 20 20 21 22 21 20 21 19 18 17 14 13 13 13 14 13 13 12 11 12 11 11 11 10 10 11 10 10 10 12 10 8 9 9 8 7 6 7 8 10 10 7 8 10 9 7 8 9 9 10 11 11 10 9 9 10 10 11 11 10 8 7
2 2 1 2 3 3 2 1 2 3 4 3 2 2 3 1 1 4 6 5 3 4 4 5 6 5 5 4 1 4 14 19 20 19 18 19 18 19 21 21 20 20 19 18 16 14 13 13 13 13 12 13 13 11 11 10 9 10 9 10 11 11 10 10 12 11 7 9 9 8 7 7 7 8 9 10 8 8 10 9 8 8 8 8 9 10 10 9 9 8 9 9 10 10 9 8 7
1 2 3 3 2 2 2 1 2 4 5 4 2 3 3 2 2 4 7 6 4 4 2 2 4 4 4 2 1 8 14 15 17 19 17 17 17 18 20 20 19 18 18 17 15 14 13 12 12 12 12 13 13 11 11 10 8 9 10 10 10 11 11 10 11 11 7 8 9 8 8 7 7 8 9 9 9 9 10 10 11 10 9 7 7 8 9 9 8 8 8 8 8 8 8 7 6
0 1 3 2 1 1 2 1 2 2 3 2 1 4 2 3 2 5 7 5 5 4 1 3 6 4 4 2 3 6 9 13 17 18 17 16 16 17 19 19 19 18 17 16 15 14 13 13 12 12 12 13 13 12 11 10 8 8 10 9 8 9 10 10 10 11 8 7 8 8 7 7 8 9 9 9 9 9 10 11 12 14 12 10 8 8 8 8 8 8 8 7 7 7 7 7 6
1 1 3 2 1 1 2 2 1 2 1 1 2 4 2 2 4 5 7 7 4 3 3 5 7 6 4 2 4 4 7 15 18 17 17 16 16 16 18 18 18 18 16 15 14 14 13 13 13 13 13 12 13 12 11 11 9 8 9 8 8 7 9 10 10 11 8 6 7 7 7 7 8 9 10 9 9 9 9 9 10 12 13 12 10 9 8 8 8 8 7 7 7 8 7 7 6
1 1 3 2 1 0 1 1 1 3 1 2 1 3 2 1 5 5 4 7 3 2 6 6 4 4 3 5 4 6 12 19 18 17 18 17 17 16 17 17 17 17 15 14 14 14 13 13 13 13 12 12 12 12 11 11 9 8 8 8 8 8 8 9 9 9 8 6 6 8 7 7 8 8 9 9 9 8 8 8 8 9 10 10 9 8 8 8 8 8 7 7 8 8 7 6 5
1 2 3 2 1 1 1 2 2 3 2 3 3 2 2 3 3 3 2 4 4 4 4 3 2 1 5 6 5 12 19 22 19 19 19 17 17 16 16 16 17 16 14 14 13 13 13 12 13 12 12 12 11 11 11 11 11 10 8 7 8 7 6 7 7 7 8 8 7 8 8 8 8 8 9 8 8 8 7 7 7 7 8 8 8 7 7 7 7 7 7 7 6 7 6 5 4
2 3 3 2 1 2 2 3 3 3 2 2 3 4 4 3 2 2 0 4 8 5 1 2 1 2 6 6 12 21 24 23 21 20 19 17 17 16 16 16 16 15 14 14 13 13 12 12 12 12 12 12 12 11 12 11 10 10 9 8 7 7 6 7 9 9 10 10 8 8 9 9 8 8 8 8 8 8 7 6 6 6 6 6 6 6 6 6 6 5 5 5 4 4 5 4 3
3 2 3 2 2 2 3 3 3 2 0 1 3 3 4 3 1 2 4 5 6 5 3 4 6 6 9 14 21 24 23 23 21 20 18 16 16 15 15 16 16 15 14 14 13 13 13 12 12 12 13 12 13 12 11 11 10 10 11 10 9 8 8 11 13 12 10 10 8 7 8 8 8 7 7 7 7 7 7 6 5 5 5 6 6 6 6 5 5 4 3 3 3 3 4 4 4
2 2 2 2 3 3 2 3 1 1 1 2 2 2 3 1 3 3 4 4 6 5 3 5 8 8 10 16 21 22 22 22 19 19 17 15 15 14 14 16 15 14 14 14 14 14 13 13 12 13 14 14 14 12 11 11 10 10 10 10 9 10 12 13 13 11 9 8 7 5 6 6 7 7 6 6 6 6 7 6 5 5 5 5 5 5 5 5 4 4 3 2 3 4 4 5 5
1 3 2 2 3 2 2 3 2 2 1 2 4 2 1 2 3 2 6 7 6 5 4 6 7 8 10 12 17 20 20 19 18 18 16 15 15 15 15 16 16 15 15 14 14 14 14 14 13 13 14 14 14 13 13 11 10 10 10 11 11 13 13 11 10 8 7 6 5 5 5 5 6 6 6 6 6 6 6 6 6 5 4 4 4 4 5 4 4 4 4 3 4 4 5 5 5
0 3 2 4 2 1 1 4 3 2 2 2 3 3 2 2 2 3 9 8 3 5 7 8 11 13 13 12 14 18 18 17 17 16 15 15 15 15 16 16 17 16 15 14 14 13 13 14 14 14 14 14 14 14 15 13 12 13 14 14 14 13 11 9 9 7 6 5 5 6 6 6 6 6 5 5 5 4 5 5 5 5 5 4 4 4 4 3 3 3 3 2 3 3 3 4 4
0 1 2 3 3 1 1 4 4 2 3 2 3 3 3 2 1 4 11 9 5 6 8 9 14 16 16 15 14 15 14 14 15 15 15 15 15 16 16 16 16 15 15 15 15 14 13 13 14 15 15 15 15 15 15 14 14 14 14 14 13 12 10 8 8 7 6 5 7 8 8 7 7 6 5 4 4 3 4 4 4 4 5 5 5 5 4 3 3 2 2 1 1 2 3 3 4
1 2 1 1 2 1 0 3 4 3 4 2 1 2 4 1 2 3 9 8 4 4 7 9 12 15 18 17 14 13 12 12 14 16 17 17 17 17 18 18 17 17 16 16 17 15 14 14 14 16 16 16 16 15 15 14 13 13 13 12 12 11 9 8 8 7 6 6 8 8 8 7 7 6 5 4 4 3 4 3 3 4 4 5 5 4 3 3 2 1 0 0 2 3 4 5 6
2 2 1 1 1 1 2 2 3 2 3 2 2 4 4 1 3 2 5 5 3 6 9 10 11 15 17 15 13 12 13 14 15 18 19 19 20 19 19 19 18 19 17 17 18 17 16 15 15 16 16 16 16 16 15 14 13 12 12 11 11 10 9 9 8 8 7 6 7 7 7 6 6 5 5 5 4 4 4 4 4 4 4 4 3 3 2 1 1 1 2 3 4 6 6 7 8
2 2 1 1 1 1 2 3 4 2 1 1 3 5 4 2 0 2 4 4 5 9 11 11 12 13 13 13 13 12 11 13 15 17 17 17 18 18 18 18 18 19 19 19 19 19 18 17 17 17 17 17 16 16 15 14 13 12 12 11 10 9 9 9 8 8 7 7 7 6 6 6 5 5 5 5 4 5 5 4 4 3 3 3 2 2 1 1 2 4 4 5 6 7 9 10 11
3 2 1 2 2 2 2 2 4 2 1 2 3 5 5 4 2 2 3 4 9 11 12 13 13 13 12 12 12 12 11 12 14 16 16 16 17 17 17 18 19 20 21 20 20 20 19 18 18 18 18 17 17 16 16 15 13 12 12 10 9 9 9 9 8 8 7 7 6 6 6 6 5 5 4 4 4 5 4 4 3 1 1 1 2 2 2 3 4 4 5 6 7 8 9 10 11
2 4 4 4 2 2 2 2 2 2 1 2 2 4 6 5 2 2 2 5 11 12 12 12 13 13 12 11 11 11 11 13 16 16 15 15 16 18 18 19 20 21 21 20 21 21 20 20 19 19 18 18 17 17 16 15 14 13 11 10 10 9 9 9 9 8 8 7 7 6 6 6 5 5 4 4 4 4 3 1 0 2 2 2 4 3 3 4 4 4 4 5 5 6 6 7 9
3 5 4 4 3 2 2 2 3 1 1 3 4 3 6 4 1 3 3 7 11 13 13 12 13 11 11 12 10 10 10 14 17 16 15 16 19 20 21 22 22 21 22 22 23 22 22 21 20 19 19 18 17 17 17 16 14 13 11 10 11 10 9 9 9 9 8 8 7 6 5 5 5 4 4 4 3 2 2 1 2 2 2 2 3 3 3 4 4 4 4 4 5 6 5 4 5
3 4 4 4 5 3 1 1 1 1 1 3 4 2 6 2 2 5 2 8 10 12 13 11 11 10 10 10 9 8 9 13 16 16 18 20 21 22 22 23 24 23 23 23 22 22 23 22 21 20 19 18 17 17 17 16 14 13 12 11 11 10 9 10 10 10 9 7 6 5 4 5 5 5 4 3 2 1 1 1 1 1 2 2 2 3 4 5 4 4 5 6 8 8 5 3 3
1 3 3 2 5 4 3 1 2 2 1 2 3 1 5 5 6 6 2 7 10 10 11 10 9 9 8 9 8 8 9 12 14 17 21 21 21 23 23 23 24 24 22 22 22 23 23 23 22 21 20 19 17 17 17 16 14 13 12 11 11 10 10 11 12 11 9 7 5 4 5 5 5 5 5 3 2 1 1 1 1 1 1 2 3 3 4 4 3 5 6 6 8 8 6 4 4
2 2 2 2 2 3 4 1 5 3 1 1 3 1 5 6 6 6 3 5 10 10 10 10 9 8 7 8 8 8 9 12 17 19 21 21 22 22 22 22 24 23 22 22 23 23 23 23 23 22 21 20 18 17 17 16 15 13 12 11 11 11 11 12 13 12 9 6 5 5 5 5 5 6 5 3 2 2 2 2 2 2 2 2 2 2 4 3 3 5 5 6 7 6 4 4 4
2 1 2 2 1 4 6 2 7 4 2 0 3 2 5 5 6 6 3 4 9 9 9 10 9 9 8 8 8 8 8 12 16 18 20 21 22 22 23 23 24 25 24 24 23 22 23 23 23 23 22 21 19 18 17 16 15 14 12 11 11 12 12 14 14 13 9 6 6 5 5 5 5 6 5 3 2 2 3 3 3 2 2 2 1 2 2 2 3 4 4 6 6 4 4 2 1
3 1 2 2 2 3 4 2 5 5 1 1 1 2 3 3 5 6 2 5 8 8 9 10 10 10 9 7 8 7 7 8 11 16 20 21 22 23 23 24 26 26 25 24 24 24 23 23 23 23 23 22 20 19 17 16 15 14 12 12 12 12 13 15 15 13 9 7 7 6 5 5 5 5 3 2 3 4 4 3 3 3 2 1 0 1 2 2 2 3 3 5 5 5 5 5 4
3 1 1 3 3 2 2 3 4 5 3 2 2 2 4 3 4 5 1 6 8 9 10 10 9 9 8 7 7 7 7 8 9 14 20 22 23 23 24 25 25 25 25 25 25 25 25 24 24 24 23 22 21 20 18 16 15 14 13 12 12 13 15 15 15 14 10 9 8 6 6 6 5 4 3 3 4 5 4 4 4 3 2 1 2 2 3 2 2 3 3 4 4 5 6 6 7
2 2 1 3 2 3 4 3 4 7 4 3 3 4 8 7 4 4 3 3 8 10 10 10 9 8 8 7 7 8 8 8 10 15 20 22 22 23 23 24 24 24 24 24 25 25 25 25 24 24 23 22 21 21 19 17 15 14 13 12 13 14 15 16 16 15 11 10 9 8 7 8 7 5 4 4 4 5 4 4 4 4 3 2 2 3 3 0 2 3 3 4 4 5 5 5 6
5 4 4 3 4 5 5 4 4 8 5 4 6 5 7 7 4 4 4 0 5 8 8 8 7 7 7 7 7 7 8 10 11 15 19 21 22 23 23 23 23 23 24 24 24 25 25 25 24 24 24 23 22 21 20 18 17 16 15 14 15 16 17 17 17 15 12 11 11 10 9 9 8 7 6 5 4 4 4 3 4 3 3 3 3 3 2 0 2 3 3 4 4 4 5 5 5
5 4 3 5 5 6 3 2 4 7 5 4 7 5 6 7 5 5 4 1 4 7 7 7 7 6 7 8 8 8 9 8 9 13 17 19 21 22 23 23 22 22 22 24 25 25 26 26 26 25 25 24 24 23 22 20 20 19 17 17 17 18 18 18 18 17 14 13 12 12 11 10 9 8 7 5 4 4 4 3 3 3 3 3 2 1 1 2 2 3 3 4 5 6 6 5 4
2 2 3 4 4 6 3 1 4 6 4 3 4 4 8 8 6 4 3 4 6 7 8 9 9 7 7 9 9 9 7 4 6 9 13 16 18 21 22 22 23 23 23 25 27 27 26 26 26 26 26 25 25 24 23 22 21 21 19 19 19 19 19 19 19 18 16 14 14 14 13 12 11 10 8 7 5 5 4 3 3 2 2 2 1 0 1 3 3 3 3 4 5 6 7 6 5
1 1 1 4 4 4 3 2 1 5 3 2 3 5 8 8 6 5 5 6 6 7 8 8 8 8 8 9 9 8 6 5 6 7 11 15 17 20 22 22 25 25 25 26 27 26 26 26 26 26 26 27 26 25 25 24 22 21 19 19 20 20 19 20 20 19 17 16 15 16 15 14 13 11 10 8 7 6 5 4 4 3 2 2 2 2 3 3 2 2 2 3 4 5 6 7 6
2 3 2 5 4 2 3 2 1 2 1 1 3 3 5 5 3 5 6 6 4 5 7 6 6 8 9 10 10 9 9 8 7 7 9 13 16 19 21 22 24 24 24 26 26 26 27 27 27 27 27 27 27 26 25 24 22 20 18 18 20 20 19 19 20 19 18 17 16 17 17 16 15 13 12 10 9 8 7 6 5 5 5 5 5 4 4 2 1 2 1 2 3 3 4 6 6
4 6 6 7 5 4 3 2 3 2 2 2 4 2 5 3 2 5 4 2 3 4 5 6 6 6 6 7 8 10 11 10 9 9 8 11 14 18 21 22 23 23 24 26 28 28 28 28 28 28 27 27 27 27 26 24 22 20 19 18 17 18 17 17 19 21 20 19 18 18 19 18 17 15 14 13 11 9 8 8 7 7 7 7 6 5 4 2 1 2 2 2 2 1 2 4 4
4 6 11 11 7 6 5 6 5 3 2 2 3 2 5 4 2 5 2 1 4 3 4 8 7 6 6 6 7 9 10 10 10 10 10 11 15 17 19 21 23 24 26 28 29 29 29 29 28 28 27 27 27 27 26 25 23 22 21 20 19 18 18 18 21 23 23 22 20 19 20 20 18 17 15 15 13 11 9 9 9 9 8 8 7 5 4 2 2 3 3 2 1 0 1 2 2
3 5 8 7 6 9 9 9 5 2 2 3 2 4 3 5 4 5 2 4 6 4 5 8 7 6 7 7 7 8 8 8 8 9 9 11 14 16 17 21 24 25 26 27 27 27 27 27 28 28 28 27 27 27 26 25 24 23 24 24 23 23 21 21 23 24 24 22 20 20 20 20 20 19 17 16 16 13 11 10 10 9 9 8 7 6 5 4 2 3 2 1 1 0 2 3 2
4 6 5 9 9 10 12 10 5 2 2 3 3 4 0 4 4 4 2 5 6 6 7 8 7 7 7 7 8 8 9 9 8 8 8 10 14 17 19 23 25 25 25 25 26 27 27 28 28 28 27 27 26 26 26 26 25 25 25 25 24 24 24 24 23 22 23 21 20 20 19 19 20 19 18 18 18 16 14 12 11 11 10 8 7 6 5 5 3 2 2 1 1 0 2 4 3
6 3 5 6 6 7 8 7 3 1 2 2 4 2 2 4 6 4 1 4 6 8 10 9 9 9 8 8 8 9 10 10 9 9 9 11 15 20 22 24 24 24 25 26 27 27 27 27 27 27 27 26 26 26 26 26 25 25 26 25 24 23 24 24 23 21 20 20 20 20 19 18 19 19 20 19 19 19 17 16 14 13 12 10 9 7 6 5 4 2 2 3 3 2 3 4 4
3 5 9 7 6 6 5 5 3 3 3 2 5 4 2 4 5 3 2 2 7 9 9 9 9 9 8 8 7 8 8 8 9 9 10 13 18 23 23 22 22 23 24 26 25 25 26 26 27 27 27 26 25 26 26 26 25 25 26 26 25 24 23 23 22 20 18 19 20 20 19 18 18 19 20 20 20 20 19 17 16 15 14 12 10 9 8 5 4 4 4 5 5 4 5 5 4
6 8 9 8 6 5 4 3 3 4 2 4 7 7 4 1 5 3 2 4 6 6 5 6 8 8 8 8 7 7 7 7 8 8 9 14 19 21 20 19 21 22 23 24 24 24 26 27 27 27 27 26 25 26 26 26 25 25 25 26 25 25 24 22 22 20 18 18 19 20 19 19 18 20 21 21 20 20 18 18 18 16 15 12 10 10 9 6 5 4 4 4 5 5 6 5 4
7 5 5 5 3 4 4 4 4 4 3 6 5 5 5 1 5 4 5 6 5 5 6 7 9 10 9 8 7 7 7 7 8 8 8 10 12 13 16 18 19 21 22 24 25 25 26 27 27 27 26 26 26 26 27 27 26 25 25 25 25 25 24 23 22 21 19 18 19 19 18 18 19 20 21 21 21 20 18 18 18 17 15 13 10 11 11 9 5 4 4 5 6 7 7 6 5
5 4 5 5 2 3 2 2 1 2 5 3 3 4 2 4 7 5 6 8 6 6 6 7 8 10 10 9 8 6 6 7 8 8 8 8 8 11 15 17 18 21 23 25 25 25 26 26 27 27 27 27 27 26 27 27 27 26 25 25 25 24 24 23 22 21 20 19 18 18 18 19 20 21 22 21 21 20 18 18 18 17 15 13 10 10 12 12 9 7 6 6 7 8 8 8 7
3 4 4 4 3 2 1 2 1 2 4 1 3 2 1 4 5 5 6 6 6 5 5 6 7 8 9 9 9 7 6 6 7 8 8 8 9 12 16 18 19 21 23 24 25 25 26 26 27 28 27 27 27 27 27 27 27 27 26 26 25 24 24 23 21 21 20 19 18 18 18 19 21 22 22 22 22 21 19 19 19 18 15 13 11 11 12 13 12 10 8 8 8 9 9 9 8
3 4 5 5 5 4 3 3 2 3 3 1 0 1 2 2 3 4 5 4 3 2 2 3 4 6 6 7 8 8 7 5 5 7 8 8 11 15 17 19 20 21 22 24 25 25 26 26 28 28 28 28 27 27 28 28 28 27 26 26 26 25 25 24 22 21 20 20 19 18 17 19 21 21 20 20 21 21 20 20 20 18 16 14 13 12 11 13 13 11 10 9 9 10 10 9 9
2 2 5 3 5 5 2 3 5 4 1 0 1 2 3 3 4 5 3 1 3 3 3 2 1 1 4 5 6 7 7 6 4 5 6 8 12 16 17 18 19 20 21 22 24 26 27 27 28 29 29 29 29 28 28 29 28 28 28 28 27 27 26 25 24 22 21 20 19 18 17 18 20 21 20 19 20 20 21 21 20 19 17 16 15 13 12 12 12 11 11 10 11 11 10 10 10
2 2 3 4 4 7 4 2 1 2 2 2 1 2 4 3 2 3 3 3 3 4 3 2 2 3 5 5 5 5 6 6 5 6 6 7 10 13 16 19 19 19 20 22 24 25 27 27 28 28 28 28 29 29 29 29 29 29 29 29 29 29 28 26 26 25 23 21 20 19 18 18 19 20 21 21 20 20 20 21 20 19 18 17 16 14 13 13 13 12 12 13 12 12 11 11 10
5 2 5 3 2 5 4 2 2 4 1 3 2 2 4 2 1 4 5 2 1 3 3 2 3 4 4 4 4 4 5 5 6 7 7 8 11 15 17 18 19 21 21 22 24 24 25 26 26 27 28 29 30 30 30 29 29 29 30 30 30 30 29 28 27 27 25 23 22 21 20 20 19 19 21 22 23 22 21 21 20 19 18 17 16 14 13 14 14 13 14 14 14 13 13 13 11
4 4 4 4 2 1 1 2 1 1 1 3 3 3 3 3 3 3 1 3 4 3 2 1 2 3 4 4 5 4 4 4 5 6 6 6 10 13 11 8 8 13 16 19 22 22 23 24 24 26 28 30 30 30 30 29 29 29 30 30 31 30 30 29 28 27 26 25 24 23 23 22 21 18 18 21 23 23 23 22 21 19 18 17 16 15 14 15 15 15 15 15 15 14 14 13 11
3 2 2 2 3 3 2 2 2 3 2 1 3 4 3 5 5 4 6 7 6 4 3 3 4 4 4 5 5 5 5 5 5 5 5 6 8 10 13 10 12 16 18 17 18 21 24 25 26 26 27 26 27 28 29 29 30 30 29 29 30 30 30 28 27 27 28 27 26 25 24 24 22 19 18 19 22 22 22 22 21 20 19 17 16 15 15 16 17 17 17 16 16 14 14 12 10
3 3 2 1 2 3 2 1 1 3 4 2 1 2 5 6 4 6 7 7 7 7 5 5 5 5 5 5 5 5 5 5 5 5 5 6 8 13 20 25 26 25 24 22 21 22 24 23 24 25 25 25 26 28 29 30 29 29 28 28 29 30 29 28 27 27 28 28 27 26 26 25 23 19 18 19 21 21 21 21 20 20 19 19 18 18 17 17 18 18 18 18 17 15 14 13 11
6 5 5 4 3 4 3 0 1 2 3 3 3 1 6 6 3 5 6 6 7 7 6 5 5 5 5 5 6 6 5 6 6 5 5 5 8 14 21 26 28 27 26 25 23 22 23 25 25 26 25 24 23 24 25 27 28 29 29 29 28 29 28 28 27 27 27 27 27 27 26 25 23 21 18 18 20 21 21 20 20 20 19 18 19 20 19 19 19 19 19 19 18 16 15 14 13
Wind_Direction
148 151 154 151 137 98 24 48 60 354 73 75 312 356 264 250 270 328 325 309 90 175 154 124 130 129 118 129 151 139 101 145 152 139 193 214 142 149 153 157 164 162 152 142 142 146 143 144 146 146 146 146 143 139 136 129 126 128 127 126 126 126 125 128 132 129 129 131 133 134 134 135 136 135 138 147 149 149 149 147 144 147 152 147 147 147 147 147 141 139 139 139 139 139 138 136 135
151 155 154 147 136 74 326 85 84 355 58 69 314 205 269 324 359 270 246 223 161 130 117 118 117 86 56 98 124 105 51 38 94 124 113 135 138 146 155 158 162 161 155 143 142 144 141 144 146 145 146 146 141 136 134 127 126 125 124 124 124 125 124 125 128 129 130 131 133 134 134 134 134 131 135 143 142 140 143 143 139 146 155 149 150 149 146 148 143 144 145 145 146 145 143 140 137
152 162 161 151 101 54 108 43 93 62 74 92 294 251 270 1 289 264 248 217 143 116 109 111 100 74 67 76 83 84 69 44 94 110 121 139 142 153 158 158 158 156 153 144 142 142 142 147 147 143 143 143 138 136 131 129 129 122 120 120 119 120 119 119 122 127 130 132 132 131 131 133 132 129 129 133 132 131 133 131 128 140 154 149 151 150 144 144 141 146 148 147 149 147 143 142 138
153 171 178 158 44 30 64 41 119 108 100 141 207 259 231 182 252 331 68 130 132 119 114 119 93 7 94 96 37 71 82 69 108 118 135 152 155 157 157 155 154 152 150 148 147 147 146 149 147 141 141 141 138 134 133 139 135 125 121 118 114 112 116 121 124 125 128 129 126 124 125 129 131 126 123 128 132 129 125 122 124 135 144 142 144 145 141 142 143 147 147 146 148 146 143 143 139
157 178 197 164 52 20 83 75 97 92 143 174 141 257 242 197 144 104 95 98 124 120 118 119 90 12 85 89 34 90 97 96 113 120 131 150 156 155 155 153 154 153 152 152 152 151 149 147 144 141 141 140 138 135 141 145 136 128 125 121 117 113 116 122 124 127 130 127 123 126 129 133 132 123 120 128 131 124 121 120 124 130 134 135 135 137 136 140 143 144 144 146 148 146 145 142 137
161 160 191 182 90 158 90 68 65 62 203 169 139 255 222 180 149 127 104 73 56 80 93 87 113 108 81 49 50 105 146 126 122 128 133 145 156 156 155 155 155 153 153 152 152 151 147 142 136 137 142 142 138 138 146 145 137 134 130 126 124 121 120 119 121 127 129 125 125 129 128 131 132 122 118 124 124 117 120 121 124 130 133 132 128 130 131 132 135 140 143 145 149 146 141 136 134
172 145 70 70 332 82 86 81 90 44 221 164 176 235 173 161 151 129 116 87 53 39 47 82 117 108 80 161 69 51 117 130 128 138 144 148 156 157 156 158 155 151 151 150 150 147 140 137 138 144 150 146 138 139 149 149 141 140 136 133 132 131 128 120 115 118 120 118 120 122 123 131 130 117 114 125 130 121 123 125 127 130 132 132 128 128 129 130 137 147 148 147 148 141 134 131 133
196 189 22 84 29 33 86 72 104 187 270 216 223 218 178 154 147 133 124 104 97 63 70 112 112 87 33 31 79 32 87 119 131 140 146 149 155 158 159 159 154 150 148 148 145 140 139 149 155 155 152 148 144 143 152 150 142 142 142 142 140 137 132 122 113 110 114 115 117 121 127 137 130 112 109 122 132 122 119 121 126 126 126 128 127 127 129 135 143 150 148 145 142 132 128 128 131
260 55 13 77 55 42 77 32 341 248 298 308 324 265 130 127 145 124 102 84 119 100 68 155 108 97 93 48 79 33 88 120 132 139 146 149 156 158 160 160 155 150 147 146 140 136 147 160 163 159 153 148 146 147 153 150 148 151 151 149 146 139 134 125 115 109 111 115 118 121 128 132 123 110 110 119 126 115 111 113 118 121 121 123 123 122 126 132 139 142 140 138 133 126 124 124 127
358 29 186 71 69 51 56 15 340 299 292 308 329 53 65 35 142 99 104 103 109 100 78 75 75 109 126 72 62 59 112 128 132 137 147 151 156 158 161 161 157 152 149 146 139 141 154 164 166 161 156 149 149 151 152 153 157 157 155 151 148 145 140 130 117 110 109 113 115 122 128 125 116 110 110 115 119 112 110 115 118 119 118 118 118 115 117 121 126 131 130 128 126 121 119 120 120
345 330 82 74 66 73 88 19 328 314 298 319 2 62 77 68 100 86 102 106 78 104 133 79 80 113 100 75 46 119 128 131 133 139 148 152 155 160 162 162 160 153 151 147 142 147 154 162 166 162 159 157 158 156 150 153 158 155 155 151 151 150 143 135 120 113 118 117 117 124 125 118 112 107 106 110 117 118 118 121 120 115 109 104 107 109 111 114 119 122 119 122 123 120 119 119 116
348 331 63 86 88 135 145 84 310 308 318 2 23 358 52 103 114 125 117 122 113 113 173 109 137 150 83 67 102 126 132 132 137 142 147 150 154 162 163 162 161 155 153 150 148 152 152 156 162 165 167 164 161 155 149 149 157 158 158 156 152 147 140 138 124 119 127 126 121 122 119 112 107 104 103 109 117 125 128 127 125 119 110 101 98 104 112 119 121 119 118 122 123 125 126 124 123
133 303 80 90 106 134 113 101 296 328 353 15 246 314 39 109 140 155 125 117 135 131 202 147 150 132 78 84 119 134 138 138 141 142 146 149 155 161 161 162 162 159 157 155 155 156 156 159 164 169 168 163 156 151 151 148 159 168 163 161 151 143 139 140 134 128 129 133 127 119 119 112 103 102 102 108 113 122 128 128 127 126 127 127 126 125 127 128 123 121 125 131 134 141 142 136 134
175 179 105 92 37 110 111 109 316 68 21 303 248 307 339 138 163 165 125 119 161 169 129 130 133 98 91 138 135 161 149 145 145 143 148 148 153 156 156 161 163 162 161 161 159 160 166 166 165 169 167 162 152 147 151 148 161 178 169 160 150 152 151 147 143 130 124 139 140 124 120 113 104 101 99 103 106 112 117 118 120 124 129 133 136 136 132 128 123 123 130 139 147 151 151 147 144
165 106 93 102 46 305 127 142 148 111 197 266 285 301 333 87 144 157 137 136 188 195 112 122 141 85 155 182 169 179 154 149 147 145 148 146 150 151 154 160 162 163 164 165 163 165 172 169 165 169 168 163 153 151 155 151 165 179 172 162 151 163 169 153 137 125 129 148 151 134 123 115 109 104 103 103 102 101 103 105 107 113 120 124 128 127 126 126 125 128 132 142 150 153 156 156 155
143 94 66 83 118 238 168 161 128 116 226 237 282 307 65 35 99 136 216 145 124 148 124 139 207 102 165 183 160 157 152 149 147 147 146 142 144 147 153 158 161 164 166 168 167 170 173 170 167 168 169 166 161 162 161 161 173 173 167 166 156 162 163 142 136 142 151 150 143 136 131 125 114 108 108 109 106 102 97 97 97 104 112 117 122 122 122 122 122 126 131 141 152 158 164 167 168
63 72 70 82 140 203 192 170 153 148 242 260 325 8 88 54 46 110 90 102 116 140 116 88 33 64 137 146 142 147 150 149 145 144 141 138 142 144 152 157 161 166 170 172 172 174 175 174 169 168 170 170 167 169 166 164 172 169 163 166 158 157 152 153 170 178 164 149 146 141 139 136 124 118 116 114 112 108 101 93 90 95 103 107 111 115 114 112 113 117 126 138 151 164 174 181 185
61 74 110 140 174 214 188 171 186 167 98 283 339 28 91 91 144 147 75 77 109 111 52 72 56 56 106 125 137 144 148 149 146 143 140 141 144 146 153 160 165 171 174 176 178 178 178 179 174 170 171 169 168 172 169 162 166 171 170 165 157 157 167 178 184 180 162 152 156 147 139 141 137 133 127 120 114 110 105 96 91 92 95 97 99 104 102 102 103 106 118 135 157 180 198 203 207
94 106 102 181 197 209 175 158 185 62 2 297 330 50 89 110 164 147 110 127 135 108 64 85 81 83 109 125 137 144 150 151 151 148 146 148 152 153 157 165 170 174 177 180 182 182 183 183 179 175 172 168 169 171 170 167 169 172 164 157 158 171 182 185 181 172 160 156 159 151 143 147 149 147 140 133 127 122 116 112 111 103 98 95 94 103 106 109 113 120 127 143 178 198 210 213 218
157 104 85 245 219 223 159 134 121 62 9 348 348 18 72 240 198 137 134 150 159 146 145 125 119 131 131 136 142 148 155 155 155 153 152 155 159 162 164 170 175 178 182 184 184 185 186 186 185 181 175 172 173 171 170 173 172 167 159 161 172 183 188 182 175 170 164 163 163 163 159 152 154 156 153 147 142 136 132 133 135 132 124 111 107 116 118 123 135 146 149 164 189 202 212 219 225
208 118 168 228 192 256 215 128 119 72 64 29 341 340 322 255 199 153 138 141 204 207 188 164 153 151 146 150 152 155 159 157 158 159 158 160 163 168 172 175 180 184 184 187 187 187 187 188 190 186 183 180 179 177 175 178 174 171 171 175 181 185 187 181 175 169 154 157 165 166 163 153 151 154 156 152 144 139 138 140 143 144 140 128 121 120 118 112 119 135 143 161 185 207 222 232 232
170 220 201 201 158 196 256 128 131 117 85 35 349 353 324 314 116 155 149 155 217 211 194 169 155 155 154 156 157 158 161 160 162 164 165 166 167 170 175 177 182 185 187 192 193 193 191 191 194 191 188 186 186 185 181 182 179 179 181 183 186 185 187 185 176 159 136 139 151 153 155 150 148 148 151 154 149 144 138 138 138 136 133 129 125 122 119 112 104 109 114 126 182 223 233 241 239
110 297 340 224 200 158 91 126 139 139 104 76 310 323 314 334 93 166 168 179 213 156 152 154 153 153 151 152 157 161 164 167 170 171 172 170 173 174 176 178 182 184 187 195 199 199 197 195 199 196 192 191 192 191 188 188 184 185 188 189 191 190 189 186 174 155 140 140 141 142 144 144 147 147 147 150 151 147 138 132 130 130 130 126 121 116 115 108 103 105 98 221 251 252 252 251 251
112 290 328 335 282 49 39 85 105 114 126 188 302 332 306 168 114 163 188 208 203 129 128 136 144 145 148 153 161 166 169 174 176 177 177 176 179 179 178 180 182 184 185 195 201 201 200 198 200 200 197 197 197 196 196 195 191 189 191 193 194 194 194 187 176 162 155 154 145 141 140 139 142 139 138 142 143 142 135 130 128 123 116 102 89 84 78 59 352 310 298 279 266 264 261 257 259
184 233 287 53 8 19 34 70 78 57 335 292 338 326 281 240 192 195 205 202 149 129 126 132 140 145 153 160 165 170 173 177 178 178 180 182 182 180 180 182 182 185 187 193 200 201 202 200 199 202 202 201 201 200 201 201 198 194 195 197 196 200 198 188 178 171 167 165 154 144 137 134 132 129 134 139 138 134 128 124 120 110 96 73 53 55 23 302 282 277 276 270 264 262 260 259 261
211 170 90 64 10 356 23 81 89 97 302 3 357 315 295 301 306 229 234 173 134 127 132 139 145 152 160 166 170 172 174 179 181 180 181 182 181 181 183 185 185 189 192 193 197 200 202 200 199 202 203 202 204 203 204 206 204 199 199 200 198 199 196 187 182 179 175 168 158 144 132 124 122 127 136 137 132 128 126 125 114 87 48 358 328 331 302 290 287 282 283 280 273 269 267 264 263
139 123 101 83 41 356 18 3 48 116 205 90 49 306 302 317 319 218 254 153 134 129 138 146 151 160 166 170 175 176 179 184 184 179 176 177 181 185 186 187 190 192 193 194 196 200 201 200 200 202 204 204 205 206 206 209 209 204 203 202 198 194 188 187 188 184 178 167 153 137 123 117 121 130 137 135 131 135 148 157 310 311 331 321 306 315 317 317 320 319 316 309 301 295 286 271 263
112 126 87 42 39 43 44 348 339 25 248 150 134 294 306 341 344 229 218 152 142 137 146 156 158 165 171 173 178 179 184 186 183 178 177 183 186 187 188 189 191 192 195 197 198 199 200 201 200 201 205 206 206 206 206 210 211 208 205 202 198 191 188 192 191 185 174 161 148 134 122 121 131 140 145 145 149 171 202 253 284 301 334 326 313 338 355 353 347 345 346 344 344 334 318 290 264
124 113 79 3 15 29 223 270 316 28 319 178 145 332 314 317 249 260 226 155 149 143 152 162 164 170 174 177 181 182 185 183 184 187 189 191 190 190 191 192 192 192 195 198 199 199 201 202 201 202 204 207 207 204 206 210 210 209 206 202 200 194 194 197 192 183 171 159 146 135 134 138 147 157 165 172 186 216 239 251 267 310 332 333 344 357 3 357 354 5 10 5 360 345 323 298 268
95 69 87 13 12 344 258 150 108 143 297 187 155 288 285 270 257 279 308 153 149 146 159 166 168 173 178 181 185 188 186 183 190 197 196 194 194 194 193 194 195 193 193 195 197 199 201 201 202 203 203 207 208 205 207 210 211 211 206 203 204 201 198 196 192 183 171 161 153 148 153 153 159 171 178 186 192 222 258 258 283 308 314 332 343 348 358 359 13 28 23 10 0 342 311 278 263
67 50 59 42 28 302 286 161 134 148 278 166 137 236 263 280 271 276 312 159 155 157 167 169 171 176 184 187 187 194 194 194 199 200 199 197 196 196 195 194 195 195 192 193 197 199 200 201 203 204 203 206 209 208 208 210 212 211 207 208 209 204 199 196 191 182 172 169 168 163 168 168 170 178 182 188 202 241 266 280 291 292 298 318 326 343 0 19 44 34 20 7 1 352 324 284 267
47 58 334 353 176 273 301 214 158 154 291 175 126 221 266 280 269 275 305 169 162 164 172 173 177 181 187 193 192 197 202 204 204 202 203 201 198 197 196 195 195 196 195 194 195 196 198 200 202 204 204 205 209 211 211 211 212 213 212 214 213 207 201 195 190 184 178 180 180 172 177 178 175 178 181 192 222 256 262 269 271 267 275 282 300 350 22 72 56 28 13 6 10 27 24 13 305
358 87 229 249 191 271 316 255 190 159 126 295 187 223 270 285 285 296 289 179 174 172 180 181 182 186 187 193 197 198 198 204 208 206 204 202 201 199 197 197 197 198 198 196 194 194 197 198 201 205 206 205 208 211 213 213 213 215 216 217 215 210 201 195 193 190 186 186 183 178 182 177 169 174 184 215 242 250 247 246 243 239 243 230 342 48 103 105 50 25 16 11 21 49 54 65 68
316 39 232 246 209 227 292 281 229 164 140 224 231 249 251 270 313 321 276 187 186 184 188 189 187 189 189 187 194 196 194 198 206 205 202 201 201 200 199 199 198 198 198 198 197 196 197 198 200 205 207 207 208 211 213 213 213 214 217 219 217 209 202 198 198 197 194 192 185 178 180 171 169 182 200 224 238 238 231 227 222 213 189 113 92 127 132 97 35 23 28 29 34 56 65 72 73
194 184 215 266 257 229 237 261 205 163 158 194 193 249 253 263 308 322 310 197 195 200 193 193 192 190 189 186 191 194 194 202 207 202 198 198 197 197 198 197 195 195 196 197 198 197 196 197 199 203 206 208 208 212 213 212 212 214 216 220 217 209 205 203 203 203 200 196 185 180 183 177 178 194 205 213 230 230 215 208 213 201 165 112 103 142 155 116 18 12 30 49 46 61 69 72 86
170 178 169 210 260 255 222 240 215 165 151 195 198 227 251 257 266 275 296 284 209 219 200 195 198 193 190 189 194 193 198 209 208 199 194 194 194 193 194 194 193 192 193 195 195 195 196 196 198 200 205 207 207 210 211 210 209 212 216 220 218 211 208 208 206 206 203 196 187 185 189 186 186 194 203 210 217 217 204 193 198 189 159 135 128 146 155 318 359 2 17 39 45 61 70 71 86
156 161 184 212 243 269 238 238 236 163 145 216 207 231 267 258 248 246 257 203 221 230 206 203 204 197 192 192 198 197 207 212 196 194 192 189 189 189 190 190 188 187 190 193 193 195 197 197 198 201 204 206 207 208 209 209 207 208 213 217 217 212 210 211 208 207 205 196 190 193 198 197 193 193 200 208 207 202 194 181 181 169 150 145 148 144 86 6 358 358 7 24 37 45 53 59 58
166 176 241 255 233 254 264 251 229 173 162 247 194 221 259 251 235 237 230 192 215 220 205 206 205 203 197 194 201 201 205 194 167 183 188 184 182 183 185 185 184 184 187 193 195 196 198 199 200 202 203 205 208 210 210 210 209 207 209 213 215 213 213 212 209 209 206 199 196 198 204 205 201 196 199 206 204 194 187 188 190 178 166 172 190 21 1 349 344 346 7 32 43 41 42 47 38
273 152 266 282 244 247 297 356 239 177 175 267 188 199 250 255 236 224 214 201 214 214 206 210 202 199 200 196 200 199 192 180 174 181 182 181 178 177 181 184 187 188 188 193 195 195 196 199 201 203 204 205 208 211 211 212 211 208 211 213 213 214 215 213 211 212 210 206 203 202 206 211 209 203 203 209 208 199 196 199 204 211 228 252 270 294 328 343 352 1 29 44 47 45 42 46 46
219 168 156 266 240 202 288 342 79 162 149 167 167 195 262 274 258 237 228 217 222 215 208 220 212 203 204 198 194 191 188 188 190 187 179 178 175 175 179 183 187 187 187 190 193 194 197 199 202 204 206 207 208 210 212 213 210 207 211 216 215 215 217 217 214 215 216 214 210 208 208 211 214 212 211 215 214 207 208 214 221 232 251 265 275 291 314 332 22 21 24 27 23 38 42 46 55
239 195 196 247 235 184 219 159 109 6 338 99 99 21 300 278 230 242 261 263 247 230 208 223 233 227 227 214 198 193 191 189 190 190 180 175 177 179 181 183 185 186 188 191 194 196 199 201 204 206 208 208 209 209 211 210 205 203 206 210 213 214 216 217 215 216 218 218 217 213 210 211 216 217 217 220 220 215 214 224 233 242 256 265 272 286 294 289 339 354 342 317 328 6 43 47 61
289 218 208 227 215 154 139 132 108 38 311 234 107 54 295 303 252 238 256 232 231 233 211 219 229 229 234 230 210 201 195 190 190 191 183 179 182 182 181 182 184 188 192 195 197 199 201 202 204 205 208 209 210 210 209 207 203 202 202 201 203 207 210 213 214 215 218 219 219 216 211 212 216 219 221 222 223 221 218 227 236 245 256 260 266 273 263 254 287 322 322 299 280 289 12 25 66
309 243 200 192 160 135 140 149 132 102 229 256 124 148 265 317 305 256 235 202 221 234 223 223 224 220 221 218 211 204 195 190 192 193 187 180 179 179 182 185 186 190 195 196 197 199 200 202 204 205 207 210 211 210 209 206 202 204 205 203 204 206 208 212 214 216 219 221 220 217 214 215 219 225 226 223 223 225 225 230 235 244 253 258 264 261 245 242 273 314 323 285 226 156 351 352 30
250 252 140 135 147 153 165 160 141 175 183 357 22 125 161 308 284 277 223 193 226 241 231 230 223 219 221 218 212 204 193 188 189 190 188 183 181 183 187 191 191 191 192 194 195 197 199 202 204 206 207 210 211 210 209 206 204 205 206 205 208 210 212 214 215 217 220 223 221 219 218 219 224 230 230 224 221 225 232 236 238 244 251 257 263 257 242 242 265 317 336 276 239 305 336 341 349
244 239 99 126 150 150 158 141 108 105 97 355 305 133 114 274 278 318 62 187 233 237 228 228 223 217 220 221 217 208 198 191 187 186 188 188 187 190 192 194 193 189 189 194 196 196 198 201 203 205 207 209 210 211 210 208 207 207 206 206 210 214 218 219 217 218 220 221 221 222 225 226 229 231 228 223 220 226 236 242 244 248 253 254 256 255 247 246 255 284 298 274 273 301 314 322 326
212 103 79 61 63 79 87 96 96 56 50 249 236 181 150 273 280 327 47 214 237 233 224 224 224 219 214 217 220 211 202 195 190 188 189 192 194 196 195 192 189 188 189 192 194 194 195 198 200 203 206 208 209 210 211 209 207 207 208 209 212 215 219 221 219 219 219 219 222 226 230 234 233 228 225 222 221 227 236 242 245 248 251 250 251 252 247 246 250 262 278 262 256 290 305 302 298
125 94 82 72 55 56 60 57 84 68 350 260 221 189 153 306 280 248 190 222 224 214 218 222 224 226 217 213 215 209 201 195 192 188 189 196 199 198 192 186 185 185 185 187 189 191 193 196 199 202 206 209 208 209 210 210 208 209 211 212 213 214 216 218 218 220 220 219 223 228 234 239 235 225 224 225 225 228 234 239 241 242 245 245 250 251 244 244 249 253 263 246 246 281 291 280 279
111 89 97 97 32 21 38 358 38 91 261 268 231 179 134 185 262 243 229 247 234 198 206 212 214 219 217 210 208 206 200 193 188 185 186 192 195 192 187 185 182 179 180 183 187 190 192 195 197 200 204 208 208 208 210 211 210 211 214 214 214 215 214 215 217 219 220 221 224 229 235 238 232 225 227 230 228 228 231 234 233 232 236 239 248 251 242 239 242 241 246 247 259 274 271 265 273
82 89 89 85 25 17 28 324 4 183 246 254 165 133 115 232 250 254 250 254 244 220 218 218 215 216 212 203 199 199 196 193 189 183 180 181 183 184 185 184 179 177 180 182 185 188 191 194 197 199 203 207 208 208 209 212 213 213 215 215 215 215 215 215 217 219 221 224 227 231 235 232 227 226 229 232 230 227 230 232 226 225 230 234 244 250 242 237 237 237 245 258 268 270 265 262 266
135 143 122 108 99 70 330 276 303 255 265 261 145 147 303 276 267 249 241 252 254 245 239 229 224 222 215 200 189 186 188 192 190 184 180 179 181 183 185 184 181 182 182 182 185 189 190 193 196 200 204 206 207 208 209 211 214 215 215 215 216 215 214 215 217 219 221 226 229 233 234 227 224 228 231 234 232 228 232 230 223 225 229 232 240 246 242 236 234 238 247 260 268 269 265 258 254
186 178 132 136 150 147 200 219 193 232 260 342 3 191 183 227 260 248 245 275 299 306 284 249 241 233 212 190 181 177 179 186 193 192 183 177 179 181 183 185 186 187 185 184 186 188 190 193 197 200 203 204 206 207 208 210 213 214 214 215 216 216 215 215 216 218 221 224 229 234 234 228 227 231 235 237 234 233 235 229 224 227 230 233 238 242 238 230 228 235 243 253 261 263 262 254 248
221 153 105 146 183 153 155 190 177 188 182 90 257 222 207 219 262 289 311 3 27 22 21 38 350 207 157 162 176 175 175 179 187 195 186 176 176 179 182 185 188 189 188 189 189 190 192 195 197 201 203 204 206 207 208 211 212 213 213 214 216 216 217 219 217 217 219 222 227 231 233 233 232 235 239 239 237 237 235 228 225 229 231 235 240 241 236 225 225 234 240 246 251 253 254 253 252
177 123 162 212 177 125 115 189 178 78 128 242 275 273 301 317 283 308 9 56 45 26 24 47 64 101 128 153 169 173 179 179 176 184 185 173 169 178 185 185 185 188 192 196 197 196 196 197 198 200 202 204 206 207 209 211 211 212 212 214 216 217 219 222 221 219 220 222 225 228 232 234 236 239 241 240 239 237 233 228 228 232 235 239 241 242 238 227 228 236 238 242 249 251 253 255 258
127 179 204 195 108 94 105 137 17 39 185 271 338 286 296 343 259 315 2 26 341 357 9 38 70 110 135 154 163 169 181 184 180 180 183 177 175 184 189 187 186 191 195 201 206 203 201 202 202 200 202 205 207 208 209 209 210 211 212 213 215 217 220 223 224 223 224 225 227 228 232 235 238 241 243 242 241 237 233 231 232 235 239 242 244 245 240 231 233 238 240 243 248 254 257 259 259
122 182 174 118 114 140 97 132 134 85 199 286 325 312 275 204 219 283 305 224 239 278 306 106 139 163 157 158 170 172 173 181 186 182 179 183 187 184 172 168 196 208 209 210 212 210 204 205 208 207 208 211 210 208 207 209 211 212 214 215 215 217 220 223 225 225 227 230 231 231 233 236 240 244 244 242 241 238 234 234 235 237 241 244 246 248 245 239 237 240 242 243 247 255 258 256 253
50 110 122 80 129 156 152 146 159 148 151 255 309 335 285 226 219 200 205 217 215 224 238 212 203 201 181 170 174 178 178 184 192 189 182 184 187 167 152 173 223 239 238 230 221 217 211 207 208 212 213 211 210 210 208 209 211 212 214 216 217 218 219 222 224 224 227 232 234 235 236 237 240 244 245 242 241 237 233 234 236 237 240 245 247 249 248 245 244 245 245 244 247 254 253 247 247
97 125 179 245 79 116 151 102 85 129 138 165 227 318 273 251 209 184 208 219 203 197 203 210 210 200 195 184 175 179 185 189 194 191 185 184 179 167 170 192 213 227 235 236 230 224 217 209 207 211 212 210 209 211 211 210 212 213 214 216 218 219 220 222 223 224 227 231 234 236 237 237 239 242 243 241 239 233 230 232 233 235 240 246 251 253 252 251 251 250 247 244 247 250 245 239 243
151 170 186 175 133 119 122 25 316 94 118 157 159 210 271 262 197 199 219 214 207 199 184 194 208 197 199 197 182 180 186 194 198 192 185 185 187 183 184 195 208 218 225 229 228 223 216 213 213 213 213 212 211 211 212 213 212 212 215 217 219 220 221 222 223 224 228 230 232 234 234 235 236 239 241 239 236 231 228 229 232 238 244 248 253 256 257 256 256 253 249 246 247 246 239 236 239